Veribest, TX (76886)

9:13 PM CDT on April 25, 2017 (GMT -0500)
Concho Estates East | | Change Station

Elev 1759 ft 31.54 °N, 100.24 °W | Updated 2 seconds ago

Clear
Clear
78.1 °F
Feels Like 78 °F
N
0.0
Wind Variable Wind from SSW
Gusts 1.0 mph

Today
High -- | Low -- °F
--% Chance of Precip.
Yesterday
High -- | Low -- °F
Precip. -- in
Pressure 29.34 in
Visibility 10.0 miles
Clouds Clear
Heat Index 78 °F
Dew Point 41 °F
Humidity 27%
Rainfall 0.00 in
Snow Depth Not available.
7:01 AM 8:16 PM
Waning Crescent, 0% visible
METAR KSJT 260151Z 19010KT 10SM CLR 29/M01 A2941 RMK AO2 SLP935 T02891011
Pressure 29.34 in
Visibility 10.0 miles
Clouds Clear
Heat Index 78 °F
Dew Point 41 °F
Humidity 27%
Rainfall 0.00 in
Snow Depth Not available.
7:01 AM 8:16 PM
Waning Crescent, 0% visible
METAR KSJT 260151Z 19010KT 10SM CLR 29/M01 A2941 RMK AO2 SLP935 T02891011

Get Severe Weather Alerts

Thanks for signing up!

Be on the lookout for a verification email in your inbox.

You'll start receiving the daily forecast at 8 AM.

×

10-Day Weather Forecast

Almanac

Astronomy

Apr. 25, 2017 Rise Set
Actual Time
Civil Twilight
Nautical Twilight
Astronomical Twilight
Moon
Length of Visible Light
Length of Day
Tomorrow will be .
, % of the Moon is Illuminated

Today's Extremes

State Highs State Lows

Community

WunderPhotos

WunderBlog® & News

Nearby

Air Quality

  Air Quality AQ Index Pollutant
Not available.

Snow Depth

Station Depth Elevation

Earthquake Activity

City Distance Mag. Time & Date
Minimum magnitude displayed is 2.5.

Coastal Water Temperatures

Place Temperature

Stations

Nearby Weather Stations

Station Location Temp. Windchill Dew Point Humidity Wind Precip. Elev Updated Type
                   

Watches & Warnings

There are currently no watches in effect.